THORAD DELTA 1 DEB, 8169

Orbit data source: Space-Track

THORAD DELTA 1 DEB, 8169 is space debris in SSO originally from a launch on Fri, 15 Nov 1974 UTC launched from the Air Force Western Test Range (AFWTR). Debris objects in space refer to the collection of defunct objects orbiting the Earth. Examples of debris include non-operational satellites, rocket bodies, and fragments generated from explosions, collisions, or faulty payload assembly.

Loading next visibility...
Identifier
8169, 1974-089AK
Orbit
SSO
Last TLE update
20 hours ago
Origin
Manufacturer
Unknown
Mission
Spacecraft
Bus & Motor
Unknown
Mass
Unknown
Launch date (UTC)
1974-11-15 (50 years ago)
Launch vehicle
Unknown
Launch site
Air Force Western Test Range (AFWTR)
Object type
Payload
Rocket body
Debris
Shape & HBR
Unknown
Radar Cross Section
Small (<0.1 m²)

Expand to show TLE details & history

TLE from 20 hours ago
0 THORAD DELTA 1 DEB
1 08169U 74089AK  25128.39440618  .00002235  00000-0  80598-2 0  9999
2 08169 102.5284  60.8362 0128835 239.9288 239.8343 12.93293362348424
Epoch: 2025-05-08T09:27Z
Definitive object data (Epoch: 2025-05-08T09:27:56.693Z)
Latitude
59.17745°
Longitude
-105.86386°
Altitude
1,348.881 km
Speed
7.165 km/s
True Right ascension
17h 30m 21s
True Declination
59° 02' 15"
Sunlit
Object was in daylight at TLE epoch
Visualization TLE readout
Latitude
60.16967°
Longitude
30.65331°
Altitude
1,396.99 km
Speed
7.121 km/s
Apparent Right ascension
02h 07m 18s
Apparent Declination
16° 54' 45"
Sunlit
Object is in daylight
Visualization observer readout
Local Sidereal Time
13:44:17
Azimuth
353.44° N
Elevation
-32.919°
Doppler factor
1
Orbital elements
Apogee altitude
1,384.76 km
Perigee altitude
1,187.277 km
Semi-major axis
7,664.156 km
Eccentricity
0.0128835
Inclination
102.5284°
RAAN
60.8362°
Arg. of periapsis
239.9288°
True anomaly
238.56824°
Mean anomaly
239.8343°
Eccentric anomaly
239.20024°
Mean motion
3.23479 °/min
BSTAR
0.0080598
Orbital period
111.29 mins
Loading maneuver chart data...
Loading SW <> Apogee altitude chart data...
Loading historical data...
Loading historical data...
Loading historical data...
Loading historical data...
Loading historical data...
Loading historical data...
Loading historical data...

THORAD DELTA 1 DEB Visibility forecast

Observer location: undefined°, undefined°

Span
Click to sort rows by Start time (UTC) header in descending order
Start Az.
Max El. time (UTC)
Max El. Az.
Max El.
End time (UTC)
End Az.
14 mins2025-05-09 07:44:35.910Z31.151° NE2025-05-09 07:51:35.910Z97.414° ESE34.805°2025-05-09 07:58:35.910Z171.361° S
12 mins2025-05-09 09:35:35.910Z358.151° N2025-05-09 09:40:35.910Z305.357° NW32.474°2025-05-09 09:47:35.910Z234.915° WSW
13 mins2025-05-09 18:23:35.910Z129.632° SE2025-05-09 18:29:35.910Z63.678° ENE37.093°2025-05-09 18:36:35.910Z353.425° N
12 mins2025-05-09 20:13:35.910Z203.072° SW2025-05-09 20:18:35.910Z254.915° W31.216°2025-05-09 20:25:35.910Z323.283° NNW
|